Regional Weather Roundup
Issued by NWS Kansas City/Pleasant Hill, MO

Home | Current Version | Previous Version | Graphics & Text | Print | Product List | Glossary Off
Versions: 1 2 3 4 5 6 7 8 9 10 11 12 13 14 15 16 17 18 19 20 21 22 23 24 25 26 27 28 29 30 31 32 33 34 35 36 37 38 39 40 41 42 43 44 45 46 47 48 49 50

000
ASUS43 KEAX 271010
RWREAX

WEATHER ROUNDUP FOR EASTERN KANSAS AND NORTHWEST MISSOURI
NATIONAL WEATHER SERVICE KANSAS CITY/PLEASANT HILL MO
500 AM CDT FRI MAR 27 2015

KSZ040-057-103>105-MOZ028-029-037-043-271100-
...KANSAS CITY METROPOLITAN AREA...

CITY           SKY/WX    TMP DP  RH WIND       PRES   REMARKS
K.C. INTL      CLOUDY    34  30  85 N12       30.17R WCI  25
K.C. DOWNTOWN  CLOUDY    38  29  70 N14       30.17S WCI  30
LEES SUMMIT    CLOUDY    36  30  79 N13       30.16R WCI  27
OLATHE - IXD   CLOUDY    35  33  92 N10       30.17R WCI  27
OLATHE - OJC   CLOUDY    37  31  78 N10       30.15R WCI  30
LAWRENCE       MOCLDY    34  31  88 N7        30.19R WCI  28

$$

MOZ001>008-011>017-020>025-030>033-038>040-044>046-053-054-271100-
...NORTHERN AND CENTRAL MISSOURI...

CITY           SKY/WX    TMP DP  RH WIND       PRES   REMARKS
ST. JOSEPH     CLEAR     32  27  81 N12       30.21R WCI  23
MOSBY          CLOUDY    36  30  80 N9        30.18R WCI  29
WARRENSBURG    LGT RAIN  34  32  93 N9        30.16R WCI  26
WHITEMAN AFB   FLURRIES  34  32  92 NE13      30.14R WCI  25
CLINTON        DRIZZLE   37  36  93 N10       30.13S WCI  30
SEDALIA        LGT SNOW  35  31  85 N16       30.14R FOG     WCI  25
WARSAW         NOT AVBL
CHILLICOTHE      N/A     34  25  69 N7        30.18S WCI  28
MOBERLY        PTCLDY    32  28  86 CALM      30.15
KIRKSVILLE     CLOUDY    31  24  75 N7        30.15R WCI  24

$$

MOZ041-047>049-056>058-063>065-088>090-097-271100-
...EASTERN AND SOUTHERN MISSOURI...

CITY           SKY/WX    TMP DP  RH WIND       PRES   REMARKS
ST. LOUIS INTL FLURRIES  36  24  62 N10G18    30.10R WCI  28
SPIRIT OF STL  LGT SNOW  34  27  75 N12       30.11R WCI  25
COLUMBIA       LGT SNOW  34  32  92 N8        30.11S FOG     WCI  27
JEFFERSON CITY CLOUDY    36  30  79 N8        30.13R WCI  30
MEXICO         CLOUDY    34  34 100 N12       30.12R FOG     WCI  25
HANNIBAL       CLEAR     30  21  69 N5        30.13R WCI  25
ROLLA          CLOUDY    36  28  73 MISG      30.05S
OSAGE BEACH    CLOUDY    39  28  65 N9        30.10R WCI  33
SPRINGFIELD    CLOUDY    38  35  89 W5        30.07S WCI  34
BRANSON        CLOUDY    37  36  93 CALM      30.07S
NEVADA         CLOUDY    37  36  93 N9        30.14  WCI  31
JOPLIN         CLOUDY    39  36  89 NE7       30.10S WCI  34
WEST PLAINS    CLOUDY    38  33  82 MISG      30.06F

$$

IAZ060-094-KSZ022-034>040-054-083-096-NEZ052-066-093-271100-
...KANSAS...SOUTHEAST NEBRASKA AND IOWA...

CITY           SKY/WX    TMP DP  RH WIND       PRES   REMARKS
TOPEKA         MOCLDY    35  31  85 N10       30.21R WCI  27
MANHATTAN      MOCLDY    33  30  88 N3        30.23R FOG
EMPORIA        CLOUDY    35  32  88 N16       30.17R WCI  25
CHANUTE        CLOUDY    39  36  89 N13G21    30.13R WCI  31
WICHITA        CLOUDY    40  34  79 N14G21    30.17R WCI  32
OMAHA          PTCLDY    25  18  74 N7        30.25R WCI  17
LINCOLN        CLEAR     24  20  84 N10       30.26R WCI  14
FALLS CITY     CLOUDY    32  25  75 N6        30.22R WCI  26
LAMONI         PTCLDY    26  19  74 N7        30.17S WCI  18
DES MOINES     MOCLDY    30  14  51 N9        30.20S WCI  22

$$




USA.gov is the U.S. government's official web portal to all federal, state and local government web resources and services.